Regional Weather Roundup
Issued by NWS

Home | Current Version | Previous Version | Text Only | Print | Product List | Glossary On
Versions: 1 2 3 4 5 6 7 8 9 10 11 12 13 14 15 16 17 18 19 20 21 22 23 24 25 26 27 28 29 30 31 32 33 34 35 36 37 38 39 40 41 42 43 44 45 46 47 48 49 50
000
ASUS43 KLSX 230307
RWRMO

WEATHER SUMMARY FOR MISSOURI
NATIONAL WEATHER SERVICE SPRINGFIELD MO
900 PM CST MON DEC 22 2014

NOTE: "FAIR" INDICATES FEW OR NO CLOUDS BELOW 12,000 FEET WITH NO
       SIGNIFICANT WEATHER AND/OR OBSTRUCTIONS TO VISIBILITY.
       CURRENT SKY AND/OR WEATHER CONDITIONS ARE NOT AVAILABLE FOR
       CHILLICOTHE AND FARMINGTON.

MOZ001>031-035>038-043-044-053-054-230400-
...NORTHERN AND WESTERN MISSOURI...

CITY           SKY/WX    TMP DP  RH WIND       PRES   REMARKS
KANSAS CTY INT CLOUDY    43  40  89 W10       29.50S
KANSAS C DTWN  CLOUDY    46  40  79 W9        29.51F
LEE`S SUMMIT   CLOUDY    44  40  85 SW9       29.52S
ST JOSEPH      CLOUDY    42  40  92 W7        29.49F
CHILLICOTHE      N/A     44  41  89 SW6       29.48R
KIRKSVILLE     CLOUDY    45  45 100 S7        29.46S

$$
MOZ066>068-077>081-088>096-101>105-230400-
...SOUTHWEST MISSOURI...

CITY           SKY/WX    TMP DP  RH WIND       PRES   REMARKS
SPRINGFIELD    PTCLDY    45  41  86 W10       29.59R
JOPLIN         CLEAR     43  40  89 W9        29.63R

$$
MOZ032>034-039>042-045>050-055>058-069>072-230400-
...CENTRAL MISSOURI...

CITY           SKY/WX    TMP DP  RH WIND       PRES   REMARKS
COLUMBIA       CLOUDY    48  46  93 W12       29.51S
JEFFERSON CITY CLOUDY    49  46  90 SW7       29.53R
ROLLA          CLOUDY    48  45  89 SW10      29.52R
SEDALIA        CLOUDY    46  41  82 W12       29.53S
WHITEMAN AFB   MOCLDY    43  40  90 W7        29.53R
WARRENSBURG    CLOUDY    43  39  87 SW8       29.54S
OSAGE BEACH    MOCLDY    48  43  81 W9        29.54S

$$
MOZ051-052-059>065-230400-
...EAST CENTRAL MISSOURI...

CITY           SKY/WX    TMP DP  RH WIND       PRES   REMARKS
ST LOUIS INTL  LGT RAIN  51  48  89 S9        29.53S FOG
SPIRIT OF STL  LGT RAIN  50  48  93 S6        29.52R
ST CHARLES     RAIN      49  48  97 S8        29.52S FOG

$$
MOZ072>076-082>087-097>100-106>115-230400-
...SOUTH CENTRAL AND SOUTHEAST MISSOURI...

CITY           SKY/WX    TMP DP  RH WIND       PRES   REMARKS
CAPE GIRARDEAU LGT RAIN  53  52  96 S13       29.60R
FARMINGTON     CLOUDY    50  48  93 S12G18    29.57S
POPLAR BLUFF   CLOUDY    53  51  93 SW12      29.60R
WEST PLAINS    CLOUDY    49  46  90 W9        29.59S

$$


USA.gov is the U.S. government's official web portal to all federal, state and local government web resources and services.